Weather History for Searcy, AR

Change the Weather History Date:

Thursday, October 24, 2013

  Actual Average Record
Temperature  
Mean Temperature 48 °F -  
Max Temperature 59 °F 71 °F 88 °F (2003)
Min Temperature 38 °F 49 °F 24 °F (1981)
Degree Days  
Heating Degree Days 16    
Growing Degree Days 0 (Base 50)    
Moisture  
Dew Point 37 °F    
Average Humidity 68    
Maximum Humidity 100    
Minimum Humidity 42    
Precipitation  
Precipitation 0.00 in - - ()
Sea Level Pressure  
Sea Level Pressure 30.26 in    
Wind  
Wind Speed 4 mph (North)    
Max Wind Speed 16 mph    
Max Gust Speed 21 mph    
Visibility 10 miles    
Events      
Averages and records for this station are not official NWS values.
T = Trace of Precipitation, MM = Missing Value Source: NWS Daily Summary

Daily Weather History Graph

Daily Weather History Graph

Search for Another Location

Airport:

Trip Planner

Search our weather history database for the weather conditions in past years. The results will help you decide how hot, cold, wet, or windy it might be!

Date:

Astronomy

Oct. 24, 2013 Rise Set
Actual Time 7:21 AM CDT 6:20 PM CDT
Civil Twilight 6:55 AM CDT 6:46 PM CDT
Nautical Twilight 6:25 AM CDT 7:16 PM CDT
Astronomical Twilight 5:56 AM CDT 7:45 PM CDT
Moon 10:49 PM CDT (10/24) 12:17 PM CDT (10/24)
Length of Visible Light 11h 51m
Length of Day
10h 59m
Waning Gibbous, 71% of the Moon is Illuminated
Oct 24
Waning Gibbous
Oct 26
Last Quarter
Nov 3
New
Nov 9
First Quarter
Nov 17
Full

Hourly Weather History & Observations

Time (CDT) Temp. Windchill Dew Point Humidity Pressure Visibility Wind Dir Wind Speed Gust Speed Precip Events Conditions
12:56 AM 41.9 °F - 39.9 °F 93% 30.14 in 10.0 mi Calm Calm - N/A   Clear
1:56 AM 45.0 °F - 43.0 °F 93% 30.14 in 10.0 mi Calm Calm - N/A   Overcast
2:56 AM 43.9 °F - 41.0 °F 90% 30.14 in 10.0 mi Calm Calm - N/A   Scattered Clouds
3:56 AM 43.0 °F - 41.0 °F 93% 30.13 in 10.0 mi Calm Calm - N/A   Clear
4:56 AM 41.0 °F - 39.9 °F 96% 30.14 in 10.0 mi Calm Calm - N/A   Clear
5:56 AM 41.0 °F - 39.9 °F 96% 30.14 in 10.0 mi Calm Calm - N/A   Clear
6:56 AM 38.8 °F - 38.8 °F 100% 30.17 in 10.0 mi Calm Calm - N/A   Clear
7:56 AM 43.0 °F 40.3 °F 41.0 °F 93% 30.21 in 10.0 mi North 4.6 mph - N/A   Clear
8:56 AM 46.9 °F - 41.0 °F 80% 30.25 in 10.0 mi NNE 8.1 mph - N/A   Clear
9:56 AM 50.9 °F - 41.0 °F 69% 30.27 in 10.0 mi North 10.4 mph - N/A   Clear
10:56 AM 54.9 °F - 37.9 °F 53% 30.27 in 10.0 mi North 16.1 mph 20.7 mph N/A   Clear
11:56 AM 57.9 °F - 36.9 °F 45% 30.28 in 10.0 mi North 12.7 mph - N/A   Clear
12:56 PM 59.0 °F - 38.8 °F 47% 30.29 in 10.0 mi NNE 11.5 mph - N/A   Clear
1:56 PM 56.8 °F - 36.9 °F 47% 30.27 in 10.0 mi North 13.8 mph - N/A   Clear
2:56 PM 59.0 °F - 37.9 °F 46% 30.27 in 10.0 mi NNE 13.8 mph - N/A   Clear
3:56 PM 59.9 °F - 37.9 °F 44% 30.28 in 10.0 mi NNE 13.8 mph 17.3 mph N/A   Clear
4:56 PM 55.9 °F - 32.9 °F 42% 30.30 in 10.0 mi NNW 11.5 mph - N/A   Clear
5:56 PM 52.9 °F - 34.0 °F 49% 30.32 in 10.0 mi NNW 5.8 mph - N/A   Clear
6:56 PM 50.0 °F - 34.0 °F 54% 30.34 in 10.0 mi Calm Calm - N/A   Clear
7:56 PM 46.9 °F - 32.9 °F 58% 30.36 in 10.0 mi NNE 6.9 mph - N/A   Clear
8:56 PM 45.9 °F 42.3 °F 32.0 °F 58% 30.38 in 10.0 mi North 6.9 mph - N/A   Clear
9:56 PM 43.9 °F 41.3 °F 31.1 °F 61% 30.40 in 10.0 mi North 4.6 mph - N/A   Clear
10:56 PM 43.0 °F - 30.0 °F 60% 30.43 in 10.0 mi Calm Calm - N/A   Clear
11:56 PM 41.0 °F 38.0 °F 30.0 °F 65% 30.43 in 10.0 mi North 4.6 mph - N/A   Clear